SQX-1 DEB

基本信息
目录编号:
58588
目录名称:
SQX-1 DEB
国际标识:
2023-199C
轨道中心:
EARTH
物体状态:
已陨落(2024-01-03)
发射日期:
2023-12-17 UTC
轨道信息
数据来源: 国际轨道数据
星历时间: 2024-01-01T15:20:33+0800
半长轴: 6523.099km
偏心率: 0.0034123
轨道倾角: 97.710°
近地点辐角: 292.114°
升交点赤经: 122.421°
平近点角: 67.654°
近地点: 122.705km
远地点: 167.223km
周期: 87.386分钟
每日圈数: 16.47866
详细信息
发射场:
JSC
轨道高度:
LEO
数据来源:
AOE Integration Group
参考系:
TEME
时间系统:
UTC
历元类型:
SGP4
2D轨道图
3D轨道图
轨道高度分析图
轨道倾角分析图
轨道综合分析图
查看轨道综合分析图